TimeMST,TemperatureF,Dew PointF,Humidity,Sea Level PressureIn,VisibilityMPH,Wind Direction,Wind SpeedMPH,Gust SpeedMPH,PrecipitationIn,Events,Conditions,WindDirDegrees,DateUTC
12:15 AM,30.2,26.6,86,30.08,10.0,North,4.6,-,N/A,,Clear,10,2012-11-25 07:15:00
12:35 AM,33.8,28.4,81,30.07,10.0,NW,3.5,-,N/A,,Clear,310,2012-11-25 07:35:00
12:55 AM,30.2,24.8,80,30.06,10.0,Calm,Calm,-,N/A,,Clear,0,2012-11-25 07:55:00
1:35 AM,35.6,26.6,70,30.05,10.0,ESE,6.9,-,N/A,,Clear,120,2012-11-25 08:35:00
1:55 AM,30.2,24.8,80,30.05,10.0,Calm,Calm,-,N/A,,Clear,0,2012-11-25 08:55:00
2:15 AM,28.4,24.8,86,30.04,10.0,Calm,Calm,-,N/A,,Clear,0,2012-11-25 09:15:00
2:35 AM,28.4,26.6,93,30.04,10.0,Calm,Calm,-,N/A,,Clear,0,2012-11-25 09:35:00
2:55 AM,28.4,21.2,74,30.05,10.0,Calm,Calm,-,N/A,,Clear,0,2012-11-25 09:55:00
3:15 AM,37.4,24.8,60,30.04,10.0,Calm,Calm,-,N/A,,Clear,0,2012-11-25 10:15:00
3:35 AM,30.2,26.6,86,30.04,10.0,SE,3.5,-,N/A,,Clear,140,2012-11-25 10:35:00
3:55 AM,28.4,24.8,86,30.03,10.0,ESE,5.8,-,N/A,,Clear,120,2012-11-25 10:55:00
4:15 AM,32.0,26.6,80,30.02,10.0,SSE,6.9,-,N/A,,Clear,160,2012-11-25 11:15:00
4:35 AM,28.4,21.2,74,30.02,10.0,East,8.1,-,N/A,,Clear,90,2012-11-25 11:35:00
4:55 AM,30.2,26.6,86,30.02,10.0,SE,5.8,-,N/A,,Clear,140,2012-11-25 11:55:00
5:15 AM,28.4,24.8,86,30.02,10.0,Calm,Calm,-,N/A,,Clear,0,2012-11-25 12:15:00
5:35 AM,28.4,26.6,93,30.01,10.0,ENE,4.6,-,N/A,,Clear,60,2012-11-25 12:35:00
5:55 AM,26.6,24.8,93,30.01,10.0,NNE,3.5,-,N/A,,Clear,20,2012-11-25 12:55:00
6:15 AM,26.6,23.0,86,30.02,10.0,Calm,Calm,-,N/A,,Clear,0,2012-11-25 13:15:00
6:35 AM,28.4,24.8,86,30.02,10.0,North,4.6,-,N/A,,Clear,10,2012-11-25 13:35:00
6:55 AM,28.4,21.2,74,30.03,10.0,NNW,4.6,-,N/A,,Clear,330,2012-11-25 13:55:00
7:55 AM,26.6,23.0,86,30.03,15.0,Variable,3.5,-,N/A,,Partly Cloudy,0,2012-11-25 14:55:00
9:55 AM,42.8,26.6,53,30.05,15.0,Calm,Calm,-,N/A,,Scattered Clouds,0,2012-11-25 16:55:00
10:55 AM,44.6,26.6,49,30.04,15.0,WSW,3.5,-,N/A,,Scattered Clouds,240,2012-11-25 17:55:00
11:50 AM,44.6,28.4,53,30.03,15.0,NW,8.1,-,N/A,,Mostly Cloudy,320,2012-11-25 18:50:00
12:50 PM,46.4,26.6,46,30.01,15.0,NW,10.4,-,N/A,,Mostly Cloudy,320,2012-11-25 19:50:00
1:50 PM,48.2,30.2,50,30.02,15.0,NW,10.4,-,N/A,,Mostly Cloudy,310,2012-11-25 20:50:00
2:54 PM,46.4,30.2,53,30.01,15.0,NW,13.8,-,N/A,,Mostly Cloudy,310,2012-11-25 21:54:00
3:50 PM,46.4,30.2,53,30.03,15.0,NW,11.5,-,N/A,,Mostly Cloudy,310,2012-11-25 22:50:00
4:50 PM,42.8,30.2,61,30.03,15.0,NW,9.2,-,N/A,,Mostly Cloudy,310,2012-11-25 23:50:00
5:50 PM,41.0,32.0,70,30.04,15.0,WNW,9.2,-,N/A,,Mostly Cloudy,300,2012-11-26 00:50:00
7:50 PM,35.6,28.4,75,30.07,15.0,Variable,5.8,-,N/A,,Scattered Clouds,0,2012-11-26 02:50:00
8:50 PM,33.8,30.2,87,30.09,15.0,Calm,Calm,-,N/A,,Scattered Clouds,0,2012-11-26 03:50:00
9:15 PM,33.8,28.4,81,30.10,7.0,ENE,3.5,-,N/A,,Clear,70,2012-11-26 04:15:00
9:35 PM,32.0,28.4,87,30.11,6.0,East,3.5,-,N/A,,Clear,80,2012-11-26 04:35:00
9:55 PM,33.8,30.2,87,30.11,8.0,ESE,6.9,-,N/A,,Clear,120,2012-11-26 04:55:00
10:15 PM,33.8,28.4,81,30.12,8.0,SSE,4.6,-,N/A,,Clear,150,2012-11-26 05:15:00
10:35 PM,33.8,28.4,81,30.12,10.0,ESE,6.9,-,N/A,,Clear,120,2012-11-26 05:35:00
11:15 PM,30.2,26.6,86,30.13,7.0,Calm,Calm,-,N/A,,Clear,0,2012-11-26 06:15:00
11:55 PM,32.0,28.4,87,30.14,10.0,SE,3.5,-,N/A,,Clear,130,2012-11-26 06:55:00